TimeMST,TemperatureF,Dew PointF,Humidity,Sea Level PressureIn,VisibilityMPH,Wind Direction,Wind SpeedMPH,Gust SpeedMPH,PrecipitationIn,Events,Conditions,WindDirDegrees,DateUTC
12:15 AM,27.7,14.9,59,30.14,10.0,Calm,Calm,-,N/A,,Clear,0,2012-12-05 07:15:00
12:55 AM,26.6,14.4,60,30.13,10.0,Calm,Calm,-,N/A,,Clear,0,2012-12-05 07:55:00
1:15 AM,26.8,14.7,60,30.12,10.0,Calm,Calm,-,N/A,,Clear,0,2012-12-05 08:15:00
1:35 AM,27.1,15.4,61,30.13,10.0,Calm,Calm,-,N/A,,Clear,0,2012-12-05 08:35:00
1:55 AM,27.0,15.6,62,30.12,10.0,Calm,Calm,-,N/A,,Clear,0,2012-12-05 08:55:00
2:15 AM,25.3,14.0,62,30.11,10.0,West,3.5,-,N/A,,Clear,280,2012-12-05 09:15:00
2:35 AM,27.0,16.7,65,30.11,10.0,West,3.5,-,N/A,,Clear,270,2012-12-05 09:35:00
2:55 AM,27.5,17.6,66,30.10,10.0,West,6.9,-,N/A,,Clear,270,2012-12-05 09:55:00
3:15 AM,29.5,18.0,62,30.09,10.0,West,8.1,-,N/A,,Clear,260,2012-12-05 10:15:00
3:35 AM,29.8,18.5,63,30.08,10.0,West,5.8,-,N/A,,Clear,260,2012-12-05 10:35:00
3:55 AM,30.7,18.9,61,30.08,10.0,WSW,6.9,-,N/A,,Clear,250,2012-12-05 10:55:00
4:15 AM,31.6,19.0,60,30.07,10.0,WSW,9.2,-,N/A,,Clear,250,2012-12-05 11:15:00
4:35 AM,32.0,19.4,60,30.07,10.0,West,9.2,-,N/A,,Clear,260,2012-12-05 11:35:00
4:55 AM,33.3,19.4,57,30.07,10.0,WSW,5.8,-,N/A,,Clear,240,2012-12-05 11:55:00
5:15 AM,33.4,19.4,56,30.07,10.0,WSW,6.9,-,N/A,,Clear,250,2012-12-05 12:15:00
5:35 AM,32.0,19.9,61,30.06,10.0,West,5.8,-,N/A,,Clear,260,2012-12-05 12:35:00
5:55 AM,33.4,20.1,58,30.07,10.0,WSW,8.1,-,N/A,,Scattered Clouds,250,2012-12-05 12:55:00
7:35 AM,32.0,20.7,63,30.01,10.0,WSW,5.8,-,N/A,,Clear,250,2012-12-05 14:35:00
7:55 AM,34.2,21.2,59,30.00,10.0,WSW,4.6,-,N/A,,Clear,240,2012-12-05 14:55:00
8:15 AM,35.8,21.6,56,30.00,10.0,Calm,Calm,-,N/A,,Clear,0,2012-12-05 15:15:00
8:35 AM,36.1,21.9,56,30.00,10.0,WSW,3.5,-,N/A,,Clear,250,2012-12-05 15:35:00
8:55 AM,39.7,22.1,49,29.99,10.0,WSW,6.9,-,N/A,,Clear,250,2012-12-05 15:55:00
9:15 AM,43.0,22.1,44,29.99,7.0,WSW,8.1,-,N/A,,Clear,250,2012-12-05 16:15:00
9:35 AM,44.2,21.9,41,29.97,10.0,WSW,8.1,-,N/A,,Clear,250,2012-12-05 16:35:00
9:55 AM,47.3,21.0,35,29.96,10.0,WSW,10.4,-,N/A,,Clear,250,2012-12-05 16:55:00
10:15 AM,48.4,21.2,34,29.95,10.0,West,9.2,-,N/A,,Clear,260,2012-12-05 17:15:00
10:35 AM,49.6,21.0,32,29.93,10.0,WSW,6.9,-,N/A,,Clear,250,2012-12-05 17:35:00
10:55 AM,52.0,21.7,31,29.91,10.0,West,4.6,-,N/A,,Clear,260,2012-12-05 17:55:00
11:15 AM,54.3,21.9,28,29.90,10.0,WSW,5.8,-,N/A,,Clear,250,2012-12-05 18:15:00
11:35 AM,57.4,22.5,26,29.88,10.0,West,3.5,-,N/A,,Clear,260,2012-12-05 18:35:00
11:55 AM,59.4,21.9,24,29.86,10.0,Calm,Calm,-,N/A,,Clear,0,2012-12-05 18:55:00
12:15 PM,64.8,20.8,19,29.84,10.0,WSW,8.1,-,N/A,,Clear,240,2012-12-05 19:15:00
12:35 PM,68.9,18.1,14,29.84,10.0,SSW,11.5,17.3,N/A,,Clear,200,2012-12-05 19:35:00
12:55 PM,69.3,18.1,14,29.82,10.0,SW,9.2,-,N/A,,Clear,220,2012-12-05 19:55:00
1:15 PM,69.8,18.3,14,29.82,10.0,SSW,8.1,-,N/A,,Clear,200,2012-12-05 20:15:00
1:35 PM,70.9,18.7,14,29.80,10.0,SSW,9.2,-,N/A,,Clear,210,2012-12-05 20:35:00
1:55 PM,71.6,19.0,14,29.80,10.0,SSW,11.5,16.1,N/A,,Clear,210,2012-12-05 20:55:00
2:15 PM,70.0,19.0,14,29.79,10.0,South,6.9,-,N/A,,Clear,190,2012-12-05 21:15:00
2:35 PM,68.7,18.7,15,29.80,10.0,West,4.6,-,N/A,,Clear,260,2012-12-05 21:35:00
2:55 PM,66.6,23.0,19,29.79,10.0,West,9.2,-,N/A,,Scattered Clouds,260,2012-12-05 21:55:00
3:15 PM,64.2,23.9,22,29.79,10.0,SW,4.6,-,N/A,,Clear,230,2012-12-05 22:15:00
3:35 PM,62.1,24.1,23,29.79,10.0,SSW,3.5,-,N/A,,Clear,210,2012-12-05 22:35:00
3:55 PM,60.1,24.6,26,29.79,10.0,SW,5.8,-,N/A,,Clear,220,2012-12-05 22:55:00
4:15 PM,57.2,24.6,29,29.79,10.0,WSW,3.5,-,N/A,,Clear,250,2012-12-05 23:15:00
4:35 PM,52.7,23.5,32,29.78,10.0,WSW,4.6,-,N/A,,Clear,240,2012-12-05 23:35:00
4:55 PM,48.9,22.3,35,29.78,10.0,Calm,Calm,-,N/A,,Clear,0,2012-12-05 23:55:00
5:15 PM,49.6,23.4,36,29.78,10.0,Calm,Calm,-,N/A,,Clear,0,2012-12-06 00:15:00
5:35 PM,42.8,23.0,46,29.78,10.0,WSW,4.6,-,N/A,,Clear,240,2012-12-06 00:35:00
5:55 PM,45.1,22.8,41,29.78,10.0,Calm,Calm,-,N/A,,Scattered Clouds,0,2012-12-06 00:55:00
6:15 PM,45.5,22.6,41,29.78,10.0,Calm,Calm,-,N/A,,Mostly Cloudy,0,2012-12-06 01:15:00
6:35 PM,46.9,23.9,40,29.79,10.0,NNW,6.9,-,N/A,,Scattered Clouds,340,2012-12-06 01:35:00
6:55 PM,53.1,25.5,34,29.80,10.0,NNW,8.1,-,N/A,,Scattered Clouds,340,2012-12-06 01:55:00
7:15 PM,51.8,24.8,35,29.80,10.0,North,4.6,-,N/A,,Scattered Clouds,360,2012-12-06 02:15:00
7:35 PM,48.7,25.3,40,29.79,10.0,North,3.5,-,N/A,,Scattered Clouds,350,2012-12-06 02:35:00
7:55 PM,48.7,25.3,40,29.80,10.0,Calm,Calm,-,N/A,,Mostly Cloudy,0,2012-12-06 02:55:00
8:15 PM,48.9,25.2,40,29.79,10.0,Calm,Calm,-,N/A,,Mostly Cloudy,0,2012-12-06 03:15:00
8:35 PM,48.0,25.5,41,29.81,10.0,West,9.2,-,N/A,,Mostly Cloudy,270,2012-12-06 03:35:00
8:55 PM,47.1,25.9,44,29.81,10.0,WSW,5.8,-,N/A,,Mostly Cloudy,250,2012-12-06 03:55:00
9:15 PM,46.6,25.7,44,29.80,10.0,Calm,Calm,-,N/A,,Mostly Cloudy,0,2012-12-06 04:15:00
9:35 PM,50.5,26.2,39,29.79,10.0,NW,3.5,-,N/A,,Mostly Cloudy,320,2012-12-06 04:35:00
9:55 PM,49.1,27.9,44,29.79,10.0,NW,23.0,31.1,N/A,,Overcast,320,2012-12-06 04:55:00
10:15 PM,60.8,29.7,31,29.79,10.0,NNW,19.6,27.6,N/A,,Mostly Cloudy,330,2012-12-06 05:15:00
10:35 PM,58.8,29.3,33,29.80,10.0,NNW,10.4,-,N/A,,Overcast,330,2012-12-06 05:35:00
10:55 PM,57.9,29.7,34,29.80,10.0,NNW,16.1,20.7,N/A,,Scattered Clouds,330,2012-12-06 05:55:00
11:15 PM,55.8,29.7,37,29.81,10.0,NNW,11.5,-,N/A,,Clear,330,2012-12-06 06:15:00
11:35 PM,53.2,29.8,41,29.81,10.0,NNW,9.2,-,N/A,,Scattered Clouds,330,2012-12-06 06:35:00
11:55 PM,52.7,30.2,42,29.82,10.0,NW,10.4,-,N/A,,Mostly Cloudy,320,2012-12-06 06:55:00